Location: Unspecified
(0.0000°N, 0.0000°E)
Time: 17:14:08
(UTC+02:00)

JASON 3 - Pass Details

Date: 01 October 2021
Orbit: 1332 x 1343 km, 66.0° (Epoch: 27 October)

Event Time Altitude Azimuth Distance (km) Brightness Sun altitude
Rises 07:17:10 0° 180° (S) 4,344 ? -8.1°
Reaches altitude 10° 07:20:26 10° 169° (S) 3,371 ? -7.3°
Maximum altitude 07:27:23 31° 110° (ESE) 2,169 ? -5.6°
Drops below altitude 10° 07:34:18 10° 52° (NE) 3,370 ? -3.8°
Sets 07:37:31 0° 42° (NE) 4,342 ? -3.0°
